Tracking 29892 objects as of 21-Nov-2024
HD Live streaming from Space Station
objects crossing your sky now

SL-8 R/B

Track SL-8 R/B now!
10-day predictions


NORAD ID: 6683
Int'l Code: 1973-037J
Perigee: 1,490.8 km
Apogee: 1,603.9 km
Inclination: 74.0 °
Period: 116.9 minutes
Semi major axis: 7918 km
RCS: 6.3515 m2 (large)
Launch date: June 8, 1973
Source: Commonwealth of Independent States (former USSR) (CIS)
Launch site: PLESETSK MISSILE AND SPACE COMPLEX (PKMTR)

Note: This is a ROCKET BODY
Your satellite tracking list
Your tracking list is empty




NASA's NSSDC Master Catalog

Two Line Element Set (TLE):
1 06683U 73037J   24325.88398694 -.00000074  00000-0 -47993-3 0  9992
2 06683  74.0184  99.8650 0071443 327.3282 204.3753 12.32115693314399
Source of the keplerian elements: AFSPC